Flag for Argentina Weather past 2 weeks in Río Gallegos, Santa Cruz, Argentina

Now
39 °F

Scattered clouds.


Feels Like: 36 °F
Forecast: 37 / 43 °F
Wind: 5 mph from Southwest

Location: Rio Gallegos Aerodrome

Current Time: May 30, 2015 at 12:34:30 PM

Latest Report: May 30, 2015 at 12:00 PM


Visibility: N/A

Pressure: 29.59 "Hg

Humidity: 87%

Dew point: 36 °F

Location of Río GallegosLocation

Historic Weather in Río Gallegos — Graph

°F

Río Gallegos temperature yesterday

Maximum temperature yesterday: 48 °F (at 2:00 PM)
Minimum temperature yesterday: 37 °F (at 1:00 AM)
Average temperature yesterday: 42 °F

Past Weeks' High & Low Weather Summary

 TemperatureHumidityPressure
High54 °F (May 18, 2:00 PM)100% (May 29, 1:00 AM)29.95 "Hg (May 29, 1:00 AM)
Low27 °F (May 25, 9:00 PM)40% (May 21, 4:00 PM)28.62 "Hg (May 20, 2:00 PM)
Average42 °F73%29.35 "Hg
* Reported May 15 11:00 AM — May 30 11:00 AM, Río Gallegos, Weather by CustomWeather, © 2015

Note: Actual official high and low records may vary slightly from our data, if they occured in-between our weather recording intervals... More about our weather records

Advertising

Río Gallegos weather history for previous 24 hours

 ConditionsComfort  
Time TempWeatherWind HumidityBarometerVisibility
11:00 AM
Sat, May 30
36 °FDrizzle. Partly sunny.No wind93%29.56 "HgN/A
10:00 AM36 °FPartly sunny.No wind87%N/AN/A
9:00 AM36 °FScattered clouds.No wind87%29.53 "HgN/A
8:00 AM36 °FPassing clouds.No wind93%29.50 "HgN/A
7:00 AM39 °FPartly cloudy.13 mph87%29.47 "HgN/A
6:00 AM37 °FPassing clouds.15 mph87%29.45 "HgN/A
5:00 AM37 °FPassing clouds.15 mph93%29.42 "HgN/A
4:00 AM37 °FPassing clouds.14 mph93%29.36 "HgN/A
3:00 AM39 °FPassing clouds.13 mph87%29.36 "HgN/A
2:00 AM41 °FPartly cloudy.12 mph93%29.33 "HgN/A
1:00 AM39 °FPartly cloudy.9 mph87%29.30 "HgN/A
12:00 AM39 °FLight rain. Partly cloudy.9 mph87%29.27 "HgN/A
11:00 PM
Fri, May 29
41 °FPartly cloudy.3 mph81%29.24 "HgN/A
10:00 PM41 °FPartly cloudy.2 mph76%29.24 "HgN/A
9:00 PM39 °FPassing clouds.No wind81%29.21 "HgN/A
8:00 PM39 °FPassing clouds.7 mph81%29.18 "HgN/A
7:00 PM41 °FClear.No wind81%29.15 "Hg10 mi
6:00 PM41 °FClear.No wind81%29.12 "Hg10 mi
5:00 PM45 °FPartly cloudy.No wind71%29.09 "HgN/A
4:00 PM46 °FBroken clouds.5 mph66%29.09 "HgN/A
3:00 PM45 °FPartly sunny.5 mph66%29.06 "HgN/A
2:00 PM48 °FSunny.15 mph58%29.09 "Hg10 mi
1:00 PM46 °FSunny.10 mph62%29.09 "Hg10 mi
12:00 PM45 °FSunny.13 mph66%29.06 "Hg10 mi
Weather by CustomWeather, © 2015

See weather overviewHow to use our weather pages